Wind_Speed
5 5 5 6 6 6 6 6 5 5 5 5 5 5 5 5 6 6 5 5 5 6 6 6 6 7 7 6 6 6 7 7 8 9 9 9 9 9 9 9 9 9 9
4 4 5 5 6 5 6 6 5 6 6 5 6 6 6 6 6 6 6 6 6 7 7 7 8 7 7 7 7 7 7 8 9 10 10 10 11 11 11 10 10 10 10
3 4 4 5 6 6 6 6 6 6 6 6 6 6 6 6 6 6 7 7 6 7 7 7 8 8 7 7 8 8 8 9 9 10 11 11 11 12 12 12 12 12 12
2 2 4 5 6 5 5 5 5 5 6 6 6 7 6 6 6 7 7 8 8 8 8 8 8 9 9 8 9 9 10 10 10 10 11 11 11 12 13 13 13 13 14
1 1 3 4 5 5 5 5 5 5 5 6 6 6 7 7 7 7 7 7 8 8 8 9 9 9 10 10 10 11 11 12 12 12 12 12 13 13 13 14 14 14 14
1 0 1 3 4 4 4 4 5 5 6 6 6 7 7 8 8 8 7 8 9 9 9 10 10 10 10 11 11 11 12 13 13 13 14 14 14 14 14 15 15 15 16
4 2 1 0 2 3 4 4 4 5 5 6 7 7 8 8 9 9 9 9 9 10 10 10 11 10 11 11 12 12 13 14 15 15 15 15 16 17 17 16 17 17 17
5 4 3 2 1 1 3 4 4 5 6 7 7 8 8 9 10 10 10 10 10 11 12 12 12 12 12 12 13 14 14 14 15 16 16 16 17 17 17 18 18 18 18
6 4 3 2 2 1 1 2 3 4 5 6 6 7 8 9 9 10 10 10 11 11 12 13 13 13 13 14 15 15 15 16 17 17 17 18 18 18 18 19 19 19 20
6 5 4 3 2 1 1 1 2 3 4 5 6 7 8 8 9 9 10 11 11 11 12 13 13 14 15 15 17 17 17 18 18 18 18 18 19 20 20 20 20 21 21
5 6 5 4 3 2 2 2 2 3 4 5 6 7 7 8 9 9 10 11 11 12 13 14 14 15 16 16 17 18 18 19 19 19 19 19 19 21 21 21 22 22 22
6 6 6 5 4 3 4 4 5 5 5 5 6 7 7 7 8 9 10 11 12 12 13 14 14 15 16 17 17 17 18 19 19 19 20 20 21 22 22 23 23 23 24
7 7 6 6 5 5 5 6 5 5 5 6 6 7 7 8 9 9 10 12 13 13 14 14 14 15 15 17 18 18 18 19 19 20 21 21 22 22 22 23 23 24 24
8 8 7 7 7 6 7 7 7 7 7 8 8 8 9 10 10 10 11 11 13 13 14 15 15 15 15 16 17 18 18 18 19 20 21 22 22 22 22 23 23 23 23
9 8 8 8 8 8 8 8 9 9 9 10 10 10 10 11 11 11 12 12 13 13 14 15 15 16 16 17 17 17 18 19 19 20 20 21 22 22 23 23 24 24 24
10 9 10 10 10 10 10 10 10 10 10 11 11 11 11 11 11 12 12 13 14 14 15 15 15 16 16 17 17 18 18 18 19 19 19 20 21 21 22 23 23 23 23
11 11 11 11 12 12 12 12 12 12 12 12 12 12 13 13 14 14 14 15 15 16 16 17 17 17 18 18 18 18 19 19 19 20 20 20 21 21 21 22 22 22 23
13 13 12 13 13 13 13 14 14 14 14 14 14 14 14 15 16 16 16 16 16 17 17 18 18 18 18 19 19 20 20 19 19 20 20 20 20 21 22 22 22 22 23
15 14 14 14 14 15 15 15 15 15 15 15 15 15 15 16 17 17 17 18 18 18 19 19 19 20 20 20 21 21 21 21 20 20 20 20 20 21 21 22 23 23 24
17 17 16 16 17 17 18 17 16 17 17 17 17 17 18 19 19 19 19 19 20 20 20 20 20 21 21 21 21 22 22 22 22 21 21 21 21 21 22 22 23 23 24
20 20 20 20 20 19 19 19 19 19 19 19 20 20 21 22 22 21 21 21 21 21 22 22 22 22 23 22 22 23 23 23 23 23 22 22 22 23 24 24 24 24 25
23 23 22 22 22 22 22 22 22 22 22 22 22 23 23 23 23 23 23 23 22 22 23 23 24 24 23 23 23 23 23 23 24 24 24 24 24 24 25 25 25 26 26
26 25 25 25 25 25 24 24 24 25 24 24 25 25 25 26 25 25 26 25 24 24 24 24 24 25 25 24 24 24 24 24 24 25 26 26 26 26 27 27 27 27 27
29 28 28 28 27 27 27 27 27 26 26 26 26 27 27 28 28 29 28 27 26 25 25 25 25 25 26 26 26 25 25 26 26 26 27 27 28 28 29 28 28 28 28
32 31 31 31 30 29 29 29 29 28 28 28 28 28 29 29 29 29 28 27 27 26 26 27 26 26 27 27 26 26 27 27 28 28 28 28 29 29 30 30 29 29 29
36 36 35 34 34 32 31 30 30 29 29 29 30 30 30 30 29 28 27 27 27 27 27 28 28 28 28 28 28 28 28 29 29 29 30 30 30 30 30 31 31 31 31
Wind_Direction
180 181 180 187 194 203 208 212 216 221 220 220 218 215 225 236 232 235 234 238 238 238 239 244 243 244 244 245 243 235 233 234 237 242 249 254 256 257 259 262 265 267 267
171 181 177 184 193 201 208 216 217 223 223 225 225 229 235 242 240 240 243 246 243 242 243 246 247 249 248 249 244 239 240 244 246 247 252 259 260 260 262 265 267 268 268
157 186 191 194 201 207 212 218 223 225 224 229 232 231 232 241 246 246 246 246 247 249 247 246 246 248 251 250 248 249 251 253 255 254 255 259 262 263 265 266 268 269 270
131 179 200 207 213 215 216 222 227 227 227 231 233 231 235 244 249 252 252 250 253 253 250 248 249 250 253 253 254 256 258 257 257 256 257 260 262 266 266 266 268 271 272
95 179 200 216 220 224 228 234 231 230 233 233 231 233 239 246 249 253 254 254 254 257 255 254 254 254 253 254 258 260 261 261 259 257 258 260 263 267 267 266 267 271 272
58 49 200 219 229 232 234 239 236 239 242 246 244 242 245 250 250 255 256 258 261 262 262 263 257 261 258 258 263 265 265 264 262 262 262 263 264 267 267 267 268 270 272
64 67 78 201 224 234 239 242 236 240 246 251 254 253 257 259 256 258 259 261 265 266 266 266 261 265 264 263 264 268 269 265 263 262 264 266 266 268 270 270 270 270 272
53 64 68 70 60 239 230 232 234 242 251 256 257 257 260 260 259 262 262 260 264 267 269 269 265 266 266 268 270 271 270 267 265 266 266 266 268 268 270 272 272 271 272
40 41 44 47 45 40 220 236 240 248 255 257 260 261 262 264 265 263 262 263 264 265 268 271 269 265 266 268 269 269 270 270 268 267 267 267 268 271 272 272 273 273 273
29 32 27 11 356 345 314 276 264 262 263 264 266 267 265 267 268 270 268 267 269 270 271 278 275 269 270 271 269 270 273 273 272 271 271 270 270 271 272 273 274 274 274
18 21 17 4 350 336 323 310 307 299 287 279 275 274 274 270 268 270 272 272 274 274 277 280 279 276 274 272 272 273 274 274 273 272 273 271 272 272 272 273 274 275 275
8 8 6 1 357 343 326 312 304 300 301 296 290 283 285 285 282 277 277 279 280 279 279 282 283 281 280 278 277 277 277 276 276 273 273 273 274 273 273 273 274 276 276
8 5 358 351 346 336 325 319 303 301 302 301 303 299 296 294 291 289 289 287 286 285 285 285 286 288 288 286 283 280 279 279 279 278 277 276 275 275 275 275 275 276 276
356 354 351 343 336 326 321 319 309 300 304 306 302 302 301 296 294 293 294 293 290 288 288 288 290 291 292 290 288 286 283 283 283 282 281 278 277 276 277 277 278 278 278
346 343 340 339 332 326 319 314 312 306 304 307 306 305 307 300 299 297 294 293 294 295 295 292 291 293 292 291 291 292 289 287 286 286 284 281 279 277 277 280 279 278 280
334 336 335 333 327 321 314 311 309 302 300 304 304 303 303 304 302 303 301 297 294 294 294 293 293 292 291 293 294 293 292 290 288 287 286 284 282 280 279 280 280 280 280
316 320 320 320 320 317 313 308 306 301 297 299 300 299 298 299 300 301 302 302 298 294 292 291 292 292 293 293 294 293 293 292 291 289 287 287 285 283 282 282 284 283 281
305 305 306 309 313 314 311 307 303 302 299 298 299 298 296 295 297 300 299 300 300 297 295 294 293 292 292 293 293 293 291 292 292 291 290 290 289 286 283 283 284 285 285
298 298 300 303 308 308 308 308 304 299 298 298 297 296 295 297 297 298 298 297 298 297 297 294 292 291 292 293 292 292 290 292 292 291 292 291 289 288 287 287 286 286 285
293 295 295 297 300 301 301 301 301 299 296 294 293 295 297 297 297 297 296 296 296 296 296 296 295 293 292 292 292 292 291 291 290 291 292 292 291 289 289 289 289 290 289
290 289 289 291 293 294 294 294 293 295 295 295 292 292 293 295 296 295 296 295 294 294 294 294 294 294 293 292 291 291 291 291 291 291 291 292 292 291 289 289 290 290 289
288 287 286 286 288 288 288 288 289 290 289 291 291 290 291 290 293 294 295 295 294 294 293 293 293 294 293 293 292 291 290 288 289 289 290 290 289 290 290 289 289 289 288
283 284 285 285 285 285 284 284 285 285 286 286 287 289 290 288 289 291 293 291 292 292 293 293 294 293 293 294 294 293 291 291 290 288 289 288 288 288 288 289 288 288 287
279 278 281 282 282 282 283 282 281 282 283 284 285 287 289 288 287 287 287 288 289 291 290 291 293 293 293 293 293 293 292 291 290 290 290 289 288 288 288 288 289 288 287
277 276 277 278 278 279 280 281 281 281 282 283 284 285 286 287 286 287 285 285 287 286 287 288 290 292 293 294 294 293 291 289 289 289 290 290 290 289 289 289 288 288 287
276 276 275 275 275 275 278 280 280 280 281 282 282 283 285 286 287 288 287 287 287 285 285 287 289 292 294 295 294 293 292 291 290 289 289 290 291 291 290 289 288 288 287
Height
5888 5889 5889 5890 5890 5891 5891 5891 5892 5892 5893 5892 5893 5893 5893 5893 5893 5893 5893 5893 5893 5893 5893 5893 5893 5893 5893 5892 5892 5892 5892 5893 5893 5893 5894 5894 5894 5893 5893 5893 5893 5892 5892
5888 5889 5889 5889 5890 5890 5890 5890 5891 5891 5891 5892 5892 5892 5892 5892 5892 5892 5892 5892 5892 5892 5892 5892 5892 5891 5891 5891 5891 5891 5891 5891 5891 5891 5891 5892 5892 5891 5891 5891 5891 5890 5890
5888 5888 5888 5889 5889 5889 5889 5890 5890 5890 5890 5891 5891 5891 5892 5891 5891 5891 5891 5890 5890 5890 5890 5890 5890 5890 5890 5889 5889 5889 5889 5889 5889 5889 5889 5889 5889 5889 5889 5889 5888 5888 5888
5888 5887 5888 5888 5888 5888 5889 5889 5889 5889 5889 5890 5890 5890 5890 5890 5890 5889 5889 5889 5889 5889 5889 5888 5888 5888 5888 5888 5887 5887 5887 5887 5886 5886 5887 5887 5887 5887 5886 5886 5886 5885 5885
5887 5887 5887 5887 5888 5888 5888 5888 5888 5888 5888 5889 5889 5889 5889 5889 5888 5888 5888 5888 5888 5887 5887 5887 5886 5886 5886 5886 5885 5885 5885 5884 5884 5884 5884 5884 5884 5884 5883 5883 5883 5882 5882
5887 5887 5887 5887 5887 5887 5887 5887 5887 5887 5887 5887 5887 5888 5888 5887 5887 5887 5886 5886 5886 5886 5885 5885 5884 5883 5883 5883 5883 5883 5882 5882 5881 5881 5881 5881 5881 5880 5880 5880 5879 5879 5879
5887 5887 5886 5886 5886 5886 5886 5886 5886 5886 5886 5886 5886 5886 5886 5885 5885 5885 5884 5884 5884 5883 5883 5882 5881 5880 5880 5880 5880 5880 5879 5879 5878 5878 5877 5877 5877 5877 5876 5876 5876 5875 5875
5888 5887 5886 5886 5885 5885 5885 5885 5885 5885 5885 5885 5884 5884 5884 5884 5883 5882 5882 5881 5881 5881 5880 5879 5878 5877 5878 5877 5877 5877 5876 5875 5874 5874 5873 5873 5873 5873 5872 5872 5871 5871 5870
5888 5887 5886 5886 5885 5885 5884 5884 5884 5883 5883 5883 5882 5882 5882 5881 5881 5880 5880 5879 5879 5878 5877 5876 5875 5875 5874 5874 5873 5873 5872 5871 5871 5870 5869 5869 5869 5868 5868 5868 5868 5867 5866
5888 5887 5886 5885 5885 5884 5883 5883 5883 5882 5881 5881 5881 5880 5880 5879 5878 5878 5878 5877 5876 5875 5875 5873 5872 5871 5871 5870 5869 5868 5868 5868 5867 5866 5865 5864 5864 5864 5864 5863 5863 5862 5862
5888 5886 5885 5885 5884 5883 5883 5882 5882 5881 5880 5880 5879 5878 5878 5877 5876 5875 5875 5874 5874 5873 5872 5871 5869 5868 5867 5866 5866 5865 5864 5864 5863 5862 5861 5860 5860 5859 5859 5858 5858 5857 5857
5887 5886 5885 5884 5883 5883 5882 5881 5880 5879 5879 5878 5877 5876 5876 5875 5874 5873 5872 5871 5871 5870 5869 5868 5866 5865 5864 5863 5862 5861 5860 5859 5858 5857 5856 5855 5855 5855 5854 5853 5853 5852 5851
5887 5886 5885 5883 5882 5881 5881 5880 5879 5878 5877 5876 5875 5874 5873 5872 5871 5870 5869 5868 5867 5866 5865 5864 5863 5861 5860 5858 5857 5856 5856 5854 5853 5852 5851 5850 5850 5849 5849 5848 5847 5846 5845
5886 5885 5884 5882 5881 5880 5879 5878 5877 5876 5875 5874 5873 5871 5870 5869 5868 5867 5866 5865 5864 5862 5861 5860 5859 5857 5856 5855 5853 5852 5851 5850 5849 5848 5846 5846 5845 5844 5843 5842 5841 5840 5839
5886 5884 5882 5881 5879 5878 5877 5876 5874 5873 5872 5871 5870 5869 5867 5866 5865 5864 5863 5862 5861 5859 5858 5856 5855 5853 5852 5851 5849 5848 5846 5845 5844 5842 5841 5840 5839 5838 5837 5836 5835 5834 5833
5884 5882 5881 5879 5877 5876 5875 5873 5872 5871 5869 5868 5867 5866 5864 5863 5861 5860 5859 5858 5857 5856 5854 5853 5851 5849 5848 5846 5845 5843 5842 5840 5839 5837 5836 5835 5834 5832 5831 5830 5829 5828 5827
5881 5880 5878 5877 5875 5873 5872 5870 5869 5867 5866 5865 5863 5862 5861 5860 5858 5857 5855 5854 5852 5851 5850 5848 5847 5845 5843 5841 5840 5838 5837 5835 5834 5832 5831 5829 5828 5827 5826 5824 5823 5822 5821
5878 5876 5874 5873 5872 5870 5868 5867 5865 5864 5862 5861 5859 5858 5856 5855 5854 5853 5851 5850 5848 5846 5845 5843 5842 5840 5838 5837 5835 5833 5832 5830 5828 5827 5825 5824 5822 5821 5820 5818 5817 5816 5815
5873 5871 5870 5869 5868 5866 5864 5862 5861 5859 5858 5857 5855 5854 5852 5851 5849 5848 5846 5844 5843 5841 5840 5838 5836 5834 5833 5831 5830 5828 5826 5824 5823 5821 5820 5818 5817 5815 5813 5812 5811 5809 5808
5869 5867 5866 5864 5863 5861 5860 5858 5856 5855 5853 5852 5850 5849 5847 5845 5844 5842 5840 5839 5837 5836 5834 5832 5830 5829 5827 5825 5824 5822 5820 5818 5817 5815 5814 5812 5811 5809 5807 5806 5804 5803 5801
5863 5862 5860 5859 5857 5856 5854 5852 5851 5849 5848 5846 5845 5843 5841 5839 5837 5836 5834 5832 5831 5829 5827 5826 5824 5823 5821 5819 5817 5816 5814 5812 5811 5809 5808 5806 5804 5803 5801 5800 5798 5796 5794
5856 5855 5854 5852 5851 5849 5848 5846 5845 5843 5842 5840 5838 5836 5835 5833 5831 5829 5827 5826 5824 5822 5821 5819 5818 5816 5814 5812 5810 5809 5807 5805 5804 5803 5801 5799 5798 5796 5794 5792 5790 5789 5787
5848 5847 5846 5845 5844 5842 5841 5839 5837 5836 5834 5833 5831 5829 5828 5826 5824 5822 5820 5819 5817 5815 5814 5813 5811 5809 5807 5805 5803 5802 5800 5798 5797 5795 5794 5792 5790 5789 5787 5784 5783 5781 5779
5840 5839 5837 5836 5835 5834 5833 5831 5829 5827 5826 5825 5823 5822 5820 5818 5816 5814 5812 5811 5809 5808 5807 5805 5803 5801 5800 5798 5796 5794 5792 5791 5789 5787 5786 5784 5782 5780 5778 5776 5774 5772 5770
5831 5829 5828 5827 5826 5825 5824 5822 5821 5820 5818 5817 5815 5813 5812 5810 5808 5806 5804 5802 5801 5800 5798 5797 5795 5793 5792 5790 5788 5786 5784 5783 5781 5779 5777 5775 5773 5771 5769 5767 5765 5763 5761
5820 5819 5818 5817 5816 5815 5814 5813 5811 5811 5810 5808 5806 5805 5803 5801 5800 5797 5795 5794 5792 5791 5790 5789 5787 5785 5783 5781 5779 5778 5776 5774 5772 5770 5768 5766 5764 5762 5760 5758 5756 5753 5751